Location: Helsinki
(60.1699°N, 24.9384°E)
Time: 13:56:06
(UTC+02:00)

Transit 4A - Pass Details

Date: 02 November 2020
Orbit: 862 x 982 km, 66.8° (Epoch: 26 November)

Event Time Altitude Azimuth Distance (km) Brightness Sun altitude
Rises 12:51:55 0° 151° (SSE) 3,624 11.8 14.2°
Reaches altitude 10° 12:56:02 10° 125° (SE) 2,706 10.7 14.1°
Maximum altitude 12:58:38 13° 100° (E) 2,516 10.2 14.1°
Drops below altitude 10° 13:01:16 10° 75° (ENE) 2,734 10.1 14.0°
Sets 13:05:28 0° 50° (NE) 3,697 10.5 13.8°
